Time,TemperatureF,DewpointF,PressureIn,WindDirection,WindDirectionDegrees,WindSpeedMPH,WindSpeedGustMPH,Humidity,HourlyPrecipIn,Conditions,Clouds,dailyrainin,SoftwareType,DateUTC
2013-08-04 00:12:00,49.8,36.1,30.15,ESE,112,3.7,-999.0,59,-99.99,,,0.00,Acu-Link.com,2013-08-04 06:12:00,
2013-08-04 00:28:00,50.0,36.7,30.14,ESE,112,0.0,-999.0,60,-99.99,,,0.00,Acu-Link.com,2013-08-04 06:28:00,
2013-08-04 00:43:00,50.4,37.0,30.15,ESE,112,1.7,-999.0,60,-99.99,,,0.00,Acu-Link.com,2013-08-04 06:43:00,
2013-08-04 00:58:00,50.2,36.9,30.14,ESE,112,0.0,-999.0,60,-99.99,,,0.00,Acu-Link.com,2013-08-04 06:58:00,
2013-08-04 01:13:00,50.0,37.5,30.14,ESE,112,1.7,-999.0,62,-99.99,,,0.00,Acu-Link.com,2013-08-04 07:13:00,
2013-08-04 01:28:00,49.8,38.1,30.14,ESE,112,1.7,-999.0,64,-99.99,,,0.00,Acu-Link.com,2013-08-04 07:28:00,
2013-08-04 01:43:00,49.3,38.0,30.13,ESE,112,1.7,-999.0,65,-99.99,,,0.00,Acu-Link.com,2013-08-04 07:43:00,
2013-08-04 01:58:00,48.9,38.0,30.14,ESE,112,0.0,-999.0,66,-99.99,,,0.00,Acu-Link.com,2013-08-04 07:58:00,
2013-08-04 02:13:00,48.6,38.1,30.14,ESE,112,1.1,-999.0,67,-99.99,,,0.00,Acu-Link.com,2013-08-04 08:13:00,
2013-08-04 02:29:00,48.4,38.3,30.14,ESE,112,1.1,-999.0,68,-99.99,,,0.00,Acu-Link.com,2013-08-04 08:29:00,
2013-08-04 02:44:00,48.4,38.3,30.13,ESE,112,1.7,-999.0,68,-99.99,,,0.00,Acu-Link.com,2013-08-04 08:44:00,
2013-08-04 02:59:00,47.8,37.8,30.13,ESE,112,0.0,-999.0,68,-99.99,,,0.00,Acu-Link.com,2013-08-04 08:59:00,
2013-08-04 03:14:00,48.0,38.0,30.13,ESE,112,1.1,-999.0,68,-99.99,,,0.00,Acu-Link.com,2013-08-04 09:14:00,
2013-08-04 03:29:00,48.2,37.8,30.13,ESE,112,0.0,-999.0,67,-99.99,,,0.00,Acu-Link.com,2013-08-04 09:29:00,
2013-08-04 03:44:00,47.8,37.4,30.13,ESE,112,0.0,-999.0,67,-99.99,,,0.00,Acu-Link.com,2013-08-04 09:44:00,
2013-08-04 03:59:00,47.7,38.0,30.14,ESE,112,0.0,-999.0,69,-99.99,,,0.00,Acu-Link.com,2013-08-04 09:59:00,
2013-08-04 04:14:00,47.7,38.0,30.14,ESE,112,0.0,-999.0,69,-99.99,,,0.00,Acu-Link.com,2013-08-04 10:14:00,
2013-08-04 04:30:00,47.3,38.4,30.13,ESE,112,1.7,-999.0,71,-99.99,,,0.00,Acu-Link.com,2013-08-04 10:30:00,
2013-08-04 04:45:00,47.5,38.6,30.14,ESE,112,0.0,-999.0,71,-99.99,,,0.00,Acu-Link.com,2013-08-04 10:45:00,
2013-08-04 05:00:00,47.5,38.6,30.13,ESE,112,1.7,-999.0,71,-99.99,,,0.00,Acu-Link.com,2013-08-04 11:00:00,
2013-08-04 05:15:00,47.7,38.8,30.14,ESE,112,2.7,-999.0,71,-99.99,,,0.00,Acu-Link.com,2013-08-04 11:15:00,
2013-08-04 05:30:00,47.7,38.4,30.15,ESE,112,0.0,-999.0,70,-99.99,,,0.00,Acu-Link.com,2013-08-04 11:30:00,
2013-08-04 05:45:00,47.5,38.6,30.15,ESE,112,0.0,-999.0,71,-99.99,,,0.00,Acu-Link.com,2013-08-04 11:45:00,
2013-08-04 06:01:00,47.1,38.5,30.15,ESE,112,0.0,-999.0,72,-99.99,,,0.00,Acu-Link.com,2013-08-04 12:01:00,
2013-08-04 06:16:00,46.9,38.7,30.15,ESE,112,0.0,-999.0,73,-99.99,,,0.00,Acu-Link.com,2013-08-04 12:16:00,
2013-08-04 06:31:00,47.3,39.1,30.15,ESE,112,0.0,-999.0,73,-99.99,,,0.00,Acu-Link.com,2013-08-04 12:31:00,
2013-08-04 06:46:00,47.5,39.3,30.15,ESE,112,1.7,-999.0,73,-99.99,,,0.00,Acu-Link.com,2013-08-04 12:46:00,
2013-08-04 07:01:00,47.3,39.1,30.16,ESE,112,0.0,-999.0,73,-99.99,,,0.00,Acu-Link.com,2013-08-04 13:01:00,
2013-08-04 07:16:00,48.4,40.2,30.16,ESE,112,0.0,-999.0,73,-99.99,,,0.00,Acu-Link.com,2013-08-04 13:16:00,
2013-08-04 07:31:00,48.7,40.8,30.16,ESE,112,1.7,-999.0,74,-99.99,,,0.00,Acu-Link.com,2013-08-04 13:31:00,
2013-08-04 08:01:00,52.9,41.5,30.16,ESE,112,2.2,-999.0,65,-99.99,,,0.00,Acu-Link.com,2013-08-04 14:01:00,
2013-08-04 08:17:00,54.3,40.7,30.17,ESE,112,3.2,-999.0,60,-99.99,,,0.00,Acu-Link.com,2013-08-04 14:17:00,
2013-08-04 08:32:00,56.3,39.4,30.17,ESE,112,3.7,-999.0,53,-99.99,,,0.00,Acu-Link.com,2013-08-04 14:32:00,
2013-08-04 08:47:00,60.3,39.4,30.18,ESE,112,2.2,-999.0,46,-99.99,,,0.00,Acu-Link.com,2013-08-04 14:47:00,
2013-08-04 09:02:00,64.9,41.9,30.18,ESE,112,2.2,-999.0,43,-99.99,,,0.00,Acu-Link.com,2013-08-04 15:02:00,
2013-08-04 09:17:00,64.2,40.0,30.18,ESE,112,1.7,-999.0,41,-99.99,,,0.00,Acu-Link.com,2013-08-04 15:17:00,
2013-08-04 09:32:00,68.4,41.1,30.17,WSW,247,2.7,-999.0,37,-99.99,,,0.00,Acu-Link.com,2013-08-04 15:32:00,
2013-08-04 09:47:00,70.7,39.4,30.17,SSW,202,3.7,-999.0,32,-99.99,,,0.00,Acu-Link.com,2013-08-04 15:47:00,
2013-08-04 10:03:00,69.4,35.8,30.17,ESE,112,3.2,-999.0,29,-99.99,,,0.00,Acu-Link.com,2013-08-04 16:03:00,
2013-08-04 10:17:00,69.1,32.8,30.16,WNW,292,1.7,-999.0,26,-99.99,,,0.00,Acu-Link.com,2013-08-04 16:17:00,
2013-08-04 10:33:00,73.0,37.0,30.16,West,270,3.2,-999.0,27,-99.99,,,0.00,Acu-Link.com,2013-08-04 16:33:00,
2013-08-04 10:48:00,74.7,34.4,30.16,SSW,202,4.2,-999.0,23,-99.99,,,0.00,Acu-Link.com,2013-08-04 16:48:00,
2013-08-04 11:03:00,71.4,37.5,30.16,SSW,202,2.7,-999.0,29,-99.99,,,0.00,Acu-Link.com,2013-08-04 17:03:00,
2013-08-04 11:18:00,67.1,37.8,30.17,SSE,157,2.7,-999.0,34,-99.99,,,0.00,Acu-Link.com,2013-08-04 17:18:00,
2013-08-04 11:33:00,69.4,37.4,30.16,SSW,202,2.2,-999.0,31,-99.99,,,0.00,Acu-Link.com,2013-08-04 17:33:00,
2013-08-04 11:48:00,69.3,39.7,30.16,South,180,0.0,-999.0,34,-99.99,,,0.00,Acu-Link.com,2013-08-04 17:48:00,
2013-08-04 12:03:00,70.5,39.2,30.15,ESE,112,0.0,-999.0,32,-99.99,,,0.00,Acu-Link.com,2013-08-04 18:03:00,
2013-08-04 12:19:00,70.9,40.4,30.15,ESE,112,6.8,-999.0,33,-99.99,,,0.00,Acu-Link.com,2013-08-04 18:19:00,
2013-08-04 12:34:00,68.2,38.8,30.15,NNW,337,4.2,-999.0,34,-99.99,,,0.00,Acu-Link.com,2013-08-04 18:34:00,
2013-08-04 12:49:00,63.5,41.8,30.16,ESE,112,4.7,-999.0,45,-99.99,,,0.00,Acu-Link.com,2013-08-04 18:49:00,
2013-08-04 13:04:00,61.5,47.9,30.16,West,270,0.0,-999.0,61,-99.99,,,0.01,Acu-Link.com,2013-08-04 19:04:00,
2013-08-04 13:19:00,61.3,45.0,30.15,West,270,0.0,-999.0,55,-99.99,,,0.01,Acu-Link.com,2013-08-04 19:19:00,
2013-08-04 13:34:00,63.0,45.6,30.15,West,270,0.0,-999.0,53,-99.99,,,0.01,Acu-Link.com,2013-08-04 19:34:00,
2013-08-04 13:49:00,63.7,43.1,30.16,West,270,0.0,-999.0,47,-99.99,,,0.01,Acu-Link.com,2013-08-04 19:49:00,
2013-08-04 14:04:00,64.4,44.8,30.16,South,180,1.7,-999.0,49,-99.99,,,0.01,Acu-Link.com,2013-08-04 20:04:00,
2013-08-04 14:19:00,70.0,42.5,30.15,SSW,202,3.2,-999.0,37,-99.99,,,0.01,Acu-Link.com,2013-08-04 20:19:00,
2013-08-04 14:35:00,71.6,40.2,30.15,South,180,4.7,-999.0,32,-99.99,,,0.01,Acu-Link.com,2013-08-04 20:35:00,
2013-08-04 14:50:00,69.6,38.4,30.14,West,270,1.7,-999.0,32,-99.99,,,0.01,Acu-Link.com,2013-08-04 20:50:00,
2013-08-04 15:05:00,68.0,40.0,30.14,WNW,292,2.7,-999.0,36,-99.99,,,0.01,Acu-Link.com,2013-08-04 21:05:00,
2013-08-04 15:21:00,68.4,41.1,30.12,SE,135,1.7,-999.0,37,-99.99,,,0.01,Acu-Link.com,2013-08-04 21:21:00,
2013-08-04 15:36:00,69.6,41.5,30.12,SE,135,0.0,-999.0,36,-99.99,,,0.01,Acu-Link.com,2013-08-04 21:36:00,
2013-08-04 15:51:00,69.4,42.0,30.12,SSW,202,0.0,-999.0,37,-99.99,,,0.02,Acu-Link.com,2013-08-04 21:51:00,
2013-08-04 16:06:00,71.1,41.3,30.11,WSW,247,0.0,-999.0,34,-99.99,,,0.02,Acu-Link.com,2013-08-04 22:06:00,
2013-08-04 16:22:00,69.1,43.8,30.12,SSW,202,1.1,-999.0,40,-99.99,,,0.04,Acu-Link.com,2013-08-04 22:22:00,
2013-08-04 16:37:00,65.3,42.8,30.12,South,180,3.2,-999.0,44,-99.99,,,0.09,Acu-Link.com,2013-08-04 22:37:00,
2013-08-04 16:52:00,59.4,43.7,30.15,ESE,112,2.2,-999.0,56,-99.99,,,0.14,Acu-Link.com,2013-08-04 22:52:00,
2013-08-04 17:07:00,58.8,43.6,30.16,ESE,112,0.0,-999.0,57,-99.99,,,0.14,Acu-Link.com,2013-08-04 23:07:00,
2013-08-04 17:22:00,57.9,49.7,30.15,ESE,112,1.1,-999.0,74,-99.99,,,0.14,Acu-Link.com,2013-08-04 23:22:00,
2013-08-04 17:37:00,59.2,48.6,30.14,ESE,112,2.2,-999.0,68,-99.99,,,0.14,Acu-Link.com,2013-08-04 23:37:00,
2013-08-04 17:53:00,59.5,46.5,30.14,ESE,112,1.7,-999.0,62,-99.99,,,0.14,Acu-Link.com,2013-08-04 23:53:00,
2013-08-04 18:07:00,61.2,46.8,30.12,ESE,112,1.7,-999.0,59,-99.99,,,0.14,Acu-Link.com,2013-08-05 00:07:00,
2013-08-04 18:22:00,60.3,45.9,30.12,ESE,112,0.0,-999.0,59,-99.99,,,0.14,Acu-Link.com,2013-08-05 00:22:00,
2013-08-04 18:38:00,60.1,45.3,30.12,ESE,112,2.2,-999.0,58,-99.99,,,0.14,Acu-Link.com,2013-08-05 00:38:00,
2013-08-04 18:53:00,59.5,44.7,30.12,ESE,112,2.7,-999.0,58,-99.99,,,0.14,Acu-Link.com,2013-08-05 00:53:00,
2013-08-04 19:08:00,58.8,44.5,30.12,ESE,112,2.2,-999.0,59,-99.99,,,0.14,Acu-Link.com,2013-08-05 01:08:00,
2013-08-04 19:23:00,57.7,43.0,30.11,ESE,112,2.7,-999.0,58,-99.99,,,0.14,Acu-Link.com,2013-08-05 01:23:00,
2013-08-04 19:38:00,56.7,42.5,30.12,ESE,112,0.0,-999.0,59,-99.99,,,0.14,Acu-Link.com,2013-08-05 01:38:00,
2013-08-04 19:53:00,55.6,41.9,30.12,ESE,112,0.0,-999.0,60,-99.99,,,0.14,Acu-Link.com,2013-08-05 01:53:00,
2013-08-04 20:08:00,54.7,41.5,30.11,ESE,112,0.0,-999.0,61,-99.99,,,0.14,Acu-Link.com,2013-08-05 02:08:00,
2013-08-04 20:24:00,53.6,41.3,30.12,ESE,112,0.0,-999.0,63,-99.99,,,0.14,Acu-Link.com,2013-08-05 02:24:00,
2013-08-04 20:39:00,52.7,40.9,30.12,ESE,112,1.7,-999.0,64,-99.99,,,0.14,Acu-Link.com,2013-08-05 02:39:00,
2013-08-04 20:54:00,52.0,40.6,30.12,ESE,112,0.0,-999.0,65,-99.99,,,0.14,Acu-Link.com,2013-08-05 02:54:00,
2013-08-04 21:09:00,51.4,40.4,30.12,ESE,112,0.0,-999.0,66,-99.99,,,0.14,Acu-Link.com,2013-08-05 03:09:00,
2013-08-04 21:24:00,51.6,40.2,30.13,ESE,112,2.2,-999.0,65,-99.99,,,0.14,Acu-Link.com,2013-08-05 03:24:00,
2013-08-04 21:39:00,51.8,40.4,30.14,ESE,112,2.2,-999.0,65,-99.99,,,0.14,Acu-Link.com,2013-08-05 03:39:00,
2013-08-04 21:54:00,52.5,40.7,30.14,ESE,112,0.0,-999.0,64,-99.99,,,0.14,Acu-Link.com,2013-08-05 03:54:00,
2013-08-04 22:09:00,52.7,40.9,30.14,ESE,112,1.1,-999.0,64,-99.99,,,0.14,Acu-Link.com,2013-08-05 04:09:00,
2013-08-04 22:24:00,52.7,41.7,30.14,South,180,3.7,-999.0,66,-99.99,,,0.14,Acu-Link.com,2013-08-05 04:24:00,
2013-08-04 22:39:00,52.3,41.7,30.14,SSW,202,3.2,-999.0,67,-99.99,,,0.14,Acu-Link.com,2013-08-05 04:39:00,
2013-08-04 22:55:00,52.0,41.8,30.14,ESE,112,3.2,-999.0,68,-99.99,,,0.14,Acu-Link.com,2013-08-05 04:55:00,
2013-08-04 23:10:00,51.4,41.9,30.13,ESE,112,2.2,-999.0,70,-99.99,,,0.14,Acu-Link.com,2013-08-05 05:10:00,
2013-08-04 23:25:00,51.6,41.8,30.13,ESE,112,1.7,-999.0,69,-99.99,,,0.14,Acu-Link.com,2013-08-05 05:25:00,
2013-08-04 23:40:00,51.4,41.6,30.13,ESE,112,3.7,-999.0,69,-99.99,,,0.14,Acu-Link.com,2013-08-05 05:40:00,
2013-08-04 23:55:00,51.4,41.9,30.13,ESE,112,3.2,-999.0,70,-99.99,,,0.14,Acu-Link.com,2013-08-05 05:55:00,